Weather History for KBTR - September, 2008

Change the Weather History Date:

Monday, September 1, 2008

  Actual Average Record
Temperature  
Mean Temperature 78 °F 82 °F  
Max Temperature 80 °F 92 °F 100 °F (2000)
Min Temperature 75 °F 72 °F 57 °F (1915)
Degree Days  
Heating Degree Days 0 0  
Month to date heating degree days 0  
Since 1 July heating degree days 0  
Cooling Degree Days 12 17  
Month to date cooling degree days 17  
Year to date cooling degree days 2178  
Growing Degree Days 28 (Base 50)    
Moisture  
Dew Point 74 °F    
Average Humidity 89    
Maximum Humidity 94    
Minimum Humidity 74    
Precipitation  
Precipitation 2.03 in 0.17 in 2.06 in (2008)
Month to date precipitation 0.17  
Year to date precipitation 41.88  
Snow  
Snow 0.00 in - - ()
Month to date snowfall  
Since 1 July snowfall  
Since 1 September snowfall  
Snow Depth -    
Sea Level Pressure  
Sea Level Pressure 29.30 in    
Wind  
Wind Speed 25 mph (East)    
Max Wind Speed 56 mph    
Max Gust Speed 91 mph    
Visibility 5 miles    
Events Rain    
T = Trace of Precipitation, MM = Missing Value Source: NWS Daily Summary

Daily Weather History Graph

Daily Weather History Graph

Search for Another Location

Airport or City:

Trip Planner

Search our weather history database for the weather conditions in past years. The results will help you decide how hot, cold, wet, or windy it might be!

Date:

Astronomy

Sep. 01, 2008 Rise Set
Actual Time 6:41 AM CDT 7:26 PM CDT
Civil Twilight 6:16 AM CDT 7:51 PM CDT
Nautical Twilight 5:48 AM CDT 8:20 PM CDT
Astronomical Twilight 5:18 AM CDT 8:49 PM CDT
Moon 8:26 AM CDT (9/1) 8:23 PM CDT (9/1)
Length of Visible Light 13h 34m
Length of Day
12h 45m
Waxing Crescent, 4% of the Moon is Illuminated
Sep 1
Waxing Crescent
Sep 7
First Quarter
Sep 15
Full
Sep 22
Last Quarter
Sep 29
New

Hourly Weather History & Observations

Time (CDT) Temp. Heat Index Dew Point Humidity Pressure Visibility Wind Dir Wind Speed Gust Speed Precip Events Conditions
12:53 AM 75.9 °F - 72.0 °F 87% 29.75 in 10.0 mi NNE 5.8 mph - 0.00 in   Overcast
1:53 AM 75.9 °F - 71.1 °F 85% 29.71 in 10.0 mi NNE 8.1 mph - N/A   Overcast
2:53 AM 77.0 °F - 71.1 °F 82% 29.67 in 10.0 mi NNE 9.2 mph - N/A   Overcast
3:53 AM 79.0 °F - 71.1 °F 77% 29.64 in 10.0 mi NNE 11.5 mph 19.6 mph N/A   Overcast
4:53 AM 80.1 °F 83.6 °F 71.1 °F 74% 29.60 in 10.0 mi NNE 12.7 mph 21.9 mph N/A   Overcast
5:53 AM 80.1 °F 83.6 °F 71.1 °F 74% 29.57 in 10.0 mi NNE 15.0 mph 25.3 mph N/A   Overcast
6:53 AM 79.0 °F - 72.0 °F 79% 29.55 in 10.0 mi NE 16.1 mph 26.5 mph 0.00 in Rain Light Rain
7:53 AM 79.0 °F - 72.0 °F 79% 29.51 in 10.0 mi NNE 17.3 mph 34.5 mph 0.00 in Rain Light Rain
8:53 AM 75.9 °F - 73.0 °F 91% 29.46 in 3.0 mi NNE 16.1 mph 35.7 mph 0.25 in Rain Rain
9:53 AM 78.1 °F - 73.0 °F 84% 29.38 in 3.0 mi NNE 20.7 mph 40.3 mph 0.19 in Rain Rain
10:53 AM 78.1 °F - 73.9 °F 87% 29.35 in 3.0 mi NE 31.1 mph 46.0 mph 0.06 in Rain Rain
11:00 AM 78.8 °F - 73.4 °F 83% 29.34 in 2.5 mi NE 25.3 mph 59.8 mph 0.01 in Rain Rain
11:10 AM 78.8 °F - 73.4 °F 83% 29.34 in 3.0 mi NE 27.6 mph 42.6 mph 0.03 in Rain Rain
11:53 AM 78.1 °F - 73.9 °F 87% 29.27 in 4.0 mi North - - 0.09 in Rain Rain
12:46 PM 78.8 °F - 73.4 °F 83% 29.16 in 2.0 mi NE 44.9 mph 70.2 mph 0.10 in Rain Rain
12:53 PM 78.1 °F - 75.0 °F 90% 29.16 in 1.8 mi NE 32.2 mph 70.2 mph 0.14 in Rain Rain
1:50 PM 77.0 °F - 75.2 °F 94% 29.02 in 0.8 mi ENE 49.5 mph 73.6 mph 0.53 in Rain Rain
1:53 PM 77.0 °F - 75.0 °F 94% 29.01 in 0.8 mi ENE 47.2 mph 73.6 mph 0.58 in Rain Rain
2:00 PM 77.0 °F - 75.2 °F 94% 29.00 in 1.2 mi ENE 47.2 mph 73.6 mph 0.02 in Rain Rain
2:12 PM 77.0 °F - 75.2 °F 94% 29.02 in 0.8 mi ENE 55.2 mph 90.9 mph 0.13 in Rain Rain
2:19 PM 77.0 °F - 75.2 °F 94% 29.01 in 1.0 mi ENE 46.0 mph 90.9 mph 0.17 in Rain Rain
2:40 PM 78.8 °F - 75.2 °F 89% 29.00 in 2.0 mi East 56.4 mph 74.8 mph 0.27 in Rain Rain
2:53 PM 78.1 °F - 75.0 °F 90% 29.00 in 1.8 mi East 55.2 mph 73.6 mph 0.27 in Rain Rain
3:06 PM 78.8 °F - 75.2 °F 89% 29.02 in 2.5 mi East 48.3 mph 81.7 mph 0.04 in Rain Rain
3:24 PM 78.8 °F - 75.2 °F 89% 29.02 in 3.0 mi East 48.3 mph 74.8 mph 0.08 in Rain Rain
3:31 PM 78.8 °F - 75.2 °F 89% 29.04 in 2.5 mi East 47.2 mph 66.7 mph 0.08 in Rain Rain
3:37 PM 78.8 °F - 75.2 °F 89% 29.05 in 1.8 mi East 40.3 mph 66.7 mph 0.11 in Rain Rain
3:53 PM 77.0 °F - 75.0 °F 94% 29.07 in 2.0 mi East 42.6 mph 64.4 mph 0.19 in Rain Rain
4:07 PM 78.8 °F - 75.2 °F 89% 29.09 in 5.0 mi East 40.3 mph 61.0 mph 0.02 in Rain Rain
4:20 PM 77.0 °F - 75.2 °F 94% 29.11 in 2.5 mi ESE 38.0 mph 65.6 mph 0.08 in Rain Rain
4:29 PM 77.0 °F - 75.2 °F 94% 29.13 in 3.0 mi ESE 36.8 mph 65.6 mph 0.09 in Rain Rain
4:53 PM 77.0 °F - 75.0 °F 94% 29.17 in 5.0 mi ESE 39.1 mph 57.5 mph 0.09 in Rain Rain
5:22 PM 77.0 °F - 75.2 °F 94% 29.20 in 2.5 mi ESE 31.1 mph 50.6 mph 0.01 in Rain Rain
5:42 PM 77.0 °F - 75.2 °F 94% 29.23 in 3.0 mi ESE 32.2 mph 56.4 mph 0.02 in Rain Rain
5:53 PM 77.0 °F - 75.0 °F 94% 29.24 in 4.0 mi ESE 33.4 mph 51.8 mph 0.03 in Rain Rain
6:07 PM 77.0 °F - 75.2 °F 94% 29.25 in 4.0 mi SE 26.5 mph 43.7 mph 0.00 in Rain Rain
6:14 PM 77.0 °F - 75.2 °F 94% 29.27 in 8.0 mi SE 29.9 mph 42.6 mph 0.01 in Rain Rain
6:49 PM 77.0 °F - 75.2 °F 94% 29.32 in 2.5 mi SE 24.2 mph 43.7 mph 0.03 in Rain Rain
6:53 PM 77.0 °F - 75.0 °F 94% 29.32 in 2.5 mi SE 25.3 mph 39.1 mph 0.03 in Rain Rain
6:58 PM 77.0 °F - 75.2 °F 94% 29.33 in 1.8 mi SE 25.3 mph 38.0 mph 0.01 in Rain Rain
7:00 PM 77.0 °F - 75.2 °F 94% 29.33 in 2.0 mi ESE 26.5 mph 40.3 mph 0.02 in Rain Rain
7:07 PM 77.0 °F - 75.2 °F 94% 29.34 in 3.0 mi SE 27.6 mph 42.6 mph 0.03 in Rain Rain
7:53 PM 78.1 °F - 75.0 °F 90% 29.38 in 4.0 mi SE 24.2 mph 36.8 mph 0.05 in Rain Rain
8:46 PM 77.0 °F - 75.2 °F 94% 29.45 in 9.0 mi SE 18.4 mph 33.4 mph 0.02 in Rain Rain
8:53 PM 77.0 °F - 75.0 °F 94% 29.45 in 5.0 mi SSE 24.2 mph 32.2 mph 0.03 in Rain Rain
9:18 PM 78.8 °F - 75.2 °F 89% 29.48 in 10.0 mi SE 26.5 mph 34.5 mph 0.01 in Rain Rain
9:53 PM 78.1 °F - 75.0 °F 90% 29.50 in 9.0 mi SE 21.9 mph 33.4 mph 0.02 in Rain Rain
10:53 PM 79.0 °F - 75.0 °F 88% 29.54 in 10.0 mi SSE 19.6 mph 35.7 mph 0.01 in Rain Rain
11:11 PM 78.8 °F - 75.2 °F 89% 29.55 in 10.0 mi SSE 18.4 mph 32.2 mph 0.00 in Rain Rain
11:53 PM 80.1 °F 85.1 °F 75.0 °F 85% 29.56 in 10.0 mi SSE 25.3 mph 33.4 mph 0.00 in Rain Rain